Regional Weather Roundup
Issued by NWS

Home | Current Version | Previous Version | Text Only | Print | Product List | Glossary Off
Versions: 1 2 3 4 5 6 7 8 9 10 11 12 13 14 15 16 17 18 19 20 21 22 23 24 25 26 27 28 29 30 31 32 33 34 35 36 37 38 39 40 41 42 43 44 45 46 47 48 49

000
ASUS45 KCYS 281110
RWRWY

WYOMING REGIONAL WEATHER ROUNDUP
NATIONAL WEATHER SERVICE CHEYENNE WY
500 AM MDT FRI AUG 28 2015

NOTE:  "FAIR" INDICATES FEW OR NO CLOUDS BELOW 12,000 FEET
WITH NO SIGNIFICANT WEATHER AND/OR OBSTRUCTIONS TO VISIBILITY.

WYZ001-281200-
YELLOWSTONE NATIONAL PARK

CITY           SKY/WX    TMP DP  RH WIND       PRES   REMARKS
LK YELLOWSTONE   N/A     36  35  96 CALM      30.42S
W YELLOWSTONE  NOT AVBL

$$
WYZ002>013-054>058-071-098>099-281200-
NORTHERN WYOMING

CITY           SKY/WX    TMP DP  RH WIND       PRES   REMARKS
JACKSON        FAIR      43  41  93 N6        30.35R
CODY           FAIR      52  45  76 CALM      30.18S
GREYBULL       FAIR      55  49  80 CALM      30.14S HAZE
WORLAND        FAIR      53  51  93 S3        30.16R FOG
SHERIDAN       FAIR      57  44  62 SW3       30.08R
BUFFALO        FAIR      65  38  36 W6        30.15R
GILLETTE       FAIR      64  43  46 W9        30.09R
HULETT         FAIR      55  50  82 S8        30.09S
NEWCASTLE      FAIR      55  46  71 E3        30.10R

$$
WYZ014>020-022>026-101>103-281200-
CENTRAL WYOMING

CITY           SKY/WX    TMP DP  RH WIND       PRES   REMARKS
BIG PINEY      FAIR      39  35  86 N7        30.38S WCI  34
PINEDALE       FAIR      41  41 100 NW7       30.39S
DUBOIS         FAIR      43  37  81 NW22      30.34S
LANDER         FAIR      51  44  77 W5        30.23S
RIVERTON       FAIR      53  50  89 W7        30.24R
CASPER         FAIR      55  45  68 SW14      30.22R
DOUGLAS        MOCLDY    62  46  55 NW12      30.17S

$$
WYZ021-027>030-104>119-281200-
SOUTHERN WYOMING

CITY           SKY/WX    TMP DP  RH WIND       PRES   REMARKS
EVANSTON       FAIR      53  38  56 S8        30.38S
KEMMERER       FAIR      45  36  70 N8        30.40R
FORT BRIDGER   SUNNY     52  37  58 NW6       30.40S
ROCK SPRINGS   FAIR      49  43  80 N6        30.35R
DIXON          FAIR      48  44  87 CALM      30.36S
RAWLINS        FAIR      46  42  86 NW6       30.33R
SARATOGA       FAIR      46  45  93 SE6       30.35R
LARAMIE        MOCLDY    46  44  93 SE6       30.32S
CHEYENNE       FAIR      56  48  74 NW12      30.22S
TORRINGTON     FAIR      60  52  74 W5        30.08S
PINE BLUFFS    FAIR      55  50  82 W8        30.16S

$$


USA.gov is the U.S. government's official web portal to all federal, state and local government web resources and services.